Flag for France Weather past 2 weeks in Nancy, France

Now
54 °F

Clear.


Feels Like: 49 °F
Forecast: 41 / 64 °F
Wind: 14 mph from East

Location: Nancy / Ochey

Current Time: Apr 19, 2015 at 12:28:59 PM

Latest Report: Apr 19, 2015 at 12:00 PM


Visibility: N/A

Pressure: 30.07 "Hg

Humidity: 41%

Dew point: 30 °F

Location of NancyLocation

Historic Weather in Nancy — Graph

°F

Nancy temperature yesterday

Maximum temperature yesterday: 55 °F (at 3:00 PM)
Minimum temperature yesterday: 41 °F (at 6:00 AM)
Average temperature yesterday: 48 °F

Past Weeks' High & Low Weather Summary

 TemperatureHumidityPressure
High77 °F (Apr 15, 2:30 PM)100% (Apr 4, 11:00 AM)30.60 "Hg (Apr 4, 11:00 AM)
Low28 °F (Apr 6, 6:00 AM)16% (Apr 10, 3:30 PM)29.86 "Hg (Apr 17, 5:30 AM)
Average52 °F60%30.23 "Hg
* Reported Apr 4 11:00 AM — Apr 19 11:30 AM, Nancy, Weather by CustomWeather, © 2015

Note: Actual official high and low records may vary slightly from our data, if they occured in-between our weather recording intervals... More about our weather records

Advertising

Nancy weather history for previous 24 hours

 ConditionsComfort  
Time TempWeatherWind HumidityBarometerVisibility
11:30 AM
Sun, Apr 19
52 °FClear.10 mph41%30.07 "HgN/A
11:00 AM52 °FClear.12 mph35%30.04 "HgN/A
10:30 AM50 °FClear.10 mph43%30.07 "HgN/A
10:00 AM48 °FClear.9 mph46%30.07 "HgN/A
9:30 AM48 °FClear.12 mph46%30.07 "HgN/A
9:00 AM45 °FClear.10 mph53%30.07 "HgN/A
8:30 AM45 °FClear.6 mph49%30.07 "HgN/A
8:00 AM43 °FClear.5 mph57%30.07 "HgN/A
7:30 AM39 °FClear.8 mph61%30.04 "HgN/A
7:00 AM39 °FClear.6 mph61%30.07 "HgN/A
6:30 AM39 °FClear.8 mph61%30.07 "HgN/A
6:00 AM39 °FClear.8 mph61%30.07 "HgN/A
5:30 AM41 °FClear.10 mph57%30.07 "HgN/A
5:00 AM41 °FClear.13 mph57%30.07 "HgN/A
4:30 AM43 °FClear.13 mph53%30.07 "HgN/A
4:00 AM43 °FClear.13 mph53%30.09 "HgN/A
3:30 AM43 °FClear.12 mph53%30.09 "HgN/A
3:00 AM43 °FClear.13 mph53%30.12 "HgN/A
2:30 AM45 °FClear.12 mph49%30.12 "HgN/A
2:00 AM45 °FClear.14 mph49%30.12 "HgN/A
1:30 AM45 °FClear.13 mph49%30.12 "HgN/A
1:00 AM45 °FClear.12 mph49%30.15 "HgN/A
12:30 AM46 °FClear.12 mph46%30.15 "HgN/A
12:00 AM46 °FClear.12 mph46%30.15 "HgN/A
11:30 PM
Sat, Apr 18
48 °FClear.15 mph43%30.15 "HgN/A
11:00 PM48 °FClear.12 mph43%30.15 "HgN/A
10:30 PM48 °FClear.12 mph43%30.15 "HgN/A
10:00 PM48 °FClear.10 mph43%30.15 "HgN/A
9:30 PM48 °FClear.9 mph43%30.15 "HgN/A
9:00 PM50 °FClear.10 mph40%30.15 "HgN/A
8:30 PM50 °FClear.8 mph40%30.15 "HgN/A
8:00 PM52 °FClear.10 mph38%30.15 "HgN/A
7:30 PM54 °FClear.15 mph35%30.15 "HgN/A
7:00 PM54 °FClear.16 mph35%30.15 "HgN/A
6:30 PM55 °FClear.17 mph36%30.15 "HgN/A
6:00 PM55 °FClear.16 mph38%30.15 "HgN/A
5:30 PM55 °FClear.15 mph36%30.15 "HgN/A
5:00 PM55 °FClear.15 mph38%30.15 "HgN/A
4:30 PM55 °FClear.17 mph38%30.15 "HgN/A
4:00 PM55 °FClear.16 mph38%30.15 "HgN/A
3:30 PM54 °FClear.20 mph41%30.18 "HgN/A
3:00 PM55 °FClear.20 mph41%30.18 "HgN/A
2:30 PM54 °FClear.18 mph41%30.18 "HgN/A
2:00 PM54 °FClear.17 mph41%30.18 "HgN/A
1:30 PM54 °FClear.16 mph41%30.18 "HgN/A
1:00 PM52 °FClear.18 mph41%30.18 "HgN/A
12:30 PM52 °FClear.16 mph44%30.18 "HgN/A
12:00 PM52 °FClear.21 mph41%30.21 "HgN/A
Weather by CustomWeather, © 2015

See weather overviewHow to use our weather pages